Regional Weather Roundup
Issued by NWS

Home | Current Version | Previous Version | Graphics & Text | Print | Product List | Glossary On
Versions: 1 2 3 4 5 6 7 8 9 10 11 12 13 14 15 16 17 18 19 20 21 22 23 24 25 26 27 28 29 30 31 32 33 34 35 36 37 38 39 40 41 42 43 44 45 46 47 48 49 50
000
ASUS43 KMPX 180910
RWRMN
WEATHER ROUNDUP FOR MINNESOTA
NATIONAL WEATHER SERVICE TWIN CITIES/CHANHASSEN MN
400 AM CDT FRI APR 18 2014


NOTE: "FAIR" INDICATES FEW OR NO CLOUDS BELOW 12,000 FEET WITH NO
SIGNIFICANT WEATHER AND/OR OBSTRUCTIONS TO VISIBILITY. N/A MEANS
CURRENT SKY AND/OR WEATHER CONDITIONS ARE NOT AVAILABLE.

MNZ060>063-068>070-181000-
   Twin Cities Metro

CITY           SKY/WX    TMP DP  RH WIND       PRES   REMARKS
TWIN CITIES    PTCLDY    27  26  96 CALM      30.33S
ST PAUL        CLEAR     26  24  92 CALM      30.34S
CRYSTAL        CLEAR     23  19  85 CALM      30.31S
BLAINE         CLEAR     25  25 100 CALM      30.32S FOG
EDEN PRAIRIE   CLEAR     28  25  88 CALM      30.32S FOG
LAKEVILLE      CLEAR     25  25 100 CALM      30.32S FOG
SOUTH ST PAUL  CLEAR     30  26  88 CALM      30.33S
LAKE ELMO      FAIR      25  23  93 CALM      30.34S
$$
MNZ001>005-007-008-013>017-022>024-027-028-181000-
   Northwest Minnesota

CITY           SKY/WX    TMP DP  RH WIND       PRES   REMARKS
BEMIDJI        PTCLDY    25  17  73 CALM      30.29S
HALLOCK        CLOUDY    28  18  64 E8        30.30S WCI  20
ROSEAU         CLEAR     25  14  63 CALM      30.31S
WARROAD        CLEAR     19  14  79 CALM      30.32S
THIEF RVR FALL CLEAR     28  12  50 E8        30.30S WCI  20
CROOKSTON      CLEAR     30  16  55 SE8       30.30R WCI  23
FOSSTON        CLEAR     23  12  63 E3        30.28F
DETROIT LAKES  PTCLDY    30  19  64 CALM      30.27S
MOORHEAD       CLOUDY    34  27  75 E2        30.28F
PARK RAPIDS    FAIR      28  19  69 E3        30.27S
$$
MNZ006-009>011-018-025>026-181000-
   North Central Minnesota

CITY           SKY/WX    TMP DP  RH WIND       PRES   REMARKS
BAUDETTE       CLEAR     19  14  81 CALM      30.31S
FLAG ISLAND    CLEAR     19  16  86 CALM      30.31S
INTL FALLS     CLEAR     18  15  88 CALM      30.31F
WASKISH        CLEAR     18  18 100 CALM      30.31S
BIG FORK       CLEAR     18  14  86 CALM      30.32R
LONGVILLE      CLOUDY    27  25  93 CALM      30.30R
GRAND RAPIDS   PTCLDY    25  19  80 CALM      30.30S
CRANE LAKE     CLEAR      9   7  92 CALM      30.35S
ORR            CLEAR     16  12  86 CALM      30.29S
COOK           CLEAR     14  12  92 CALM      30.31F
$$
MNZ012-019>021-037-181000-
   Northeast Minnesota

CITY           SKY/WX    TMP DP  RH WIND       PRES   REMARKS
DULUTH         MOCLDY    23  18  81 CALM      30.30S
ELY            CLEAR     12  10  92 CALM      30.31R
HIBBING        PTCLDY    19  15  84 CALM      30.31S
EVELETH        PTCLDY    18  16  93 CALM      30.32S
DULUTH HARBOR  CLOUDY    27  21  80 CALM      30.35S
TWO HARBORS    MOCLDY    27  19  74 NW3       30.30S
SILVER BAY     PTCLDY    21  21 100 CALM      30.30R
GRAND MARAIS     N/A     31  29  92 CALM      30.32R
G MARAIS ARPRT CLOUDY    25  19  80 NW3       30.26S
$$
MNZ029>031-032-039>041-046>048-054>057-064-181000-
   West Central Minnesota

CITY           SKY/WX    TMP DP  RH WIND       PRES   REMARKS
FERGUS FALLS   CLOUDY    34  19  55 CALM      30.26S
WHEATON        CLOUDY    34  30  86 E6        30.30R WCI  29
MORRIS         CLOUDY    30  27  86 SE6       30.28F WCI  24
ALEXANDRIA     CLOUDY    30  24  78 CALM      30.29R
ELBOW LAKE     CLOUDY    33  24  70 SE5       30.28S WCI  28
WADENA         MOCLDY    27  18  69 CALM      30.28R
GLENWOOD       MOCLDY    27  21  80 S3        30.29R
APPLETON       CLOUDY    32  25  74 SE3       30.28F
BENSON         CLOUDY    28  25  86 CALM      30.30R
ORTONVILLE     CLOUDY    30  23  74 SE6       30.27S WCI  24
MADISON        MOCLDY    34  28  80 SE5       30.27F WCI  30
WILLMAR        CLOUDY    28  25  86 CALM      30.31R
$$
MNZ033>034-036-042>043-049>051-058-059-181000-
   Central Minnesota

CITY           SKY/WX    TMP DP  RH WIND       PRES   REMARKS
ST CLOUD       CLOUDY    22  19  89 NE3       30.31R
SAUK CENTRE    CLOUDY    22  20  92 CALM      30.29S
PAYNESVILLE    PTCLDY    21  20  93 CALM      30.30S
AITKIN         CLOUDY    30  21  69 CALM      30.29S
PINE RIVER     CLOUDY    30  23  74 E3        30.32R
BRAINERD       CLOUDY    34  22  61 CALM      30.29S
STAPLES        CLOUDY    27  21  80 CALM      30.28S
LONG PRAIRIE   MOCLDY    25  21  86 CALM      30.29S
LITTLE FALLS   CLOUDY    27  19  74 CALM      30.30S
LITCHFIELD       N/A     25  23  93 CALM      30.30S
BUFFALO        PTCLDY    22  20  92 CALM      30.32S
MAPLE LAKE     PTCLDY    23  22  98 CALM      30.32S FOG
$$
MNZ037-044-045-052-053-181000-
   East Central Minnesota

CITY           SKY/WX    TMP DP  RH WIND       PRES   REMARKS
PRINCETON      PTCLDY    21  19  93 CALM      30.31S FOG
MORA           CLEAR     19  16  86 CALM      30.33S
CAMBRIDGE      MOCLDY    21  16  79 CALM      30.31R
RUSH CITY      CLEAR     19  17  93 CALM      30.32S
MOOSE LAKE     PTCLDY    23  21  93 CALM      30.31R
HINCKLEY       PTSUNNY   21  21 100 CALM      30.31S
CLOQUET        PTCLDY    21  19  93 CALM      30.31R
MCGREGOR       PTCLDY    28  23  80 E3        30.31S
$$
MNZ071>073-080-081-089-090-097-098-181000-
   Southwest Minnesota

CITY           SKY/WX    TMP DP  RH WIND       PRES   REMARKS
MONTEVIDEO     CLOUDY    30  27  86 SE3       30.29F
GRANITE FALLS  CLOUDY    29  25  82 E3        30.30F
CANBY          CLOUDY    32  26  80 SE3       30.28S
MARSHALL       MOCLDY    34  25  69 S9        30.27S WCI  26
REDWOOD FALLS  CLOUDY    31  27  85 S5        30.30R WCI  26
OLIVIA         CLOUDY    28  25  86 CALM      30.30R
PIPESTONE      CLOUDY    32  28  86 SE8       30.23F WCI  25
WINDOM         CLOUDY    32  28  86 E3        30.29R
WORTHINGTON    MOCLDY    30  25  80 E6        30.28S WCI  24
JACKSON        CLOUDY    32  28  86 E5        30.28S FOG     WCI  27
TRACY          CLOUDY    33  28  83 CALM      30.28S
SLAYTON        CLOUDY    31  28  88 SE8       30.27S WCI  24
$$
MNZ065>067-074>077-082>085-091>093-181000-
   South Central Minnesota

CITY           SKY/WX    TMP DP  RH WIND       PRES   REMARKS
MANKATO        CLOUDY    30  27  86 E7        30.31F WCI  23
NEW ULM        CLOUDY    30  28  93 CALM      30.30S
ST JAMES       MOCLDY    32  28  86 CALM      30.31S
FAIRMONT       MOCLDY    28  27  93 CALM      30.31S
GLENCOE        PTCLDY    26  23  87 E3        30.30F FOG
FARIBAULT      MOCLDY    30  25  80 CALM      30.32S HAZE
OWATONNA       MOCLDY    28  27  93 CALM      30.32R FOG
WASECA         MOCLDY    30  30 100 CALM      30.33R FOG
ALBERT LEA       N/A     27  27 100 CALM      30.31R
$$
MNZ078>079-086>088-094>096-181000-
   Southeast Minnesota

CITY           SKY/WX    TMP DP  RH WIND       PRES   REMARKS
ROCHESTER      CLEAR     30  25  81 W3        30.32R HAZE
RED WING       CLEAR     25  23  93 CALM      30.33S FOG
STANTON        CLEAR     27  26  93 CALM      30.32S FOG
DODGE CENTER   CLEAR     32  30  93 CALM      30.31S FOG
WINONA         CLEAR     30  28  93 CALM      30.35R
AUSTIN         CLEAR     27  25  93 CALM      30.31S FOG
PRESTON        CLEAR     29  27  92 CALM      30.32R FOG
$$
ABBREVIATIONS USED IN REMARKS
   TC - TEMPERATURES IN CELSIUS
  WCI - WIND CHILL INDEX
   HX - HEAT INDEX
  VSB - VISIBILITY
$$



USA.gov is the U.S. government's official web portal to all federal, state and local government web resources and services.